Location: Fond Mahaut
(18.0707°N, 63.0465°W)
Time: 19:38:15
(UTC+00:00)

GPS 2-18 Rocket1 - Pass Details

Date: 08 December 2019
Orbit: 460 x 517 km, 20.9° (Epoch: 25 January)

Event Time Altitude Azimuth Distance (km) Brightness Sun altitude
Rises 21:57:50 0° 281° (W) 2,578 7.8 -5.5°
Reaches altitude 10° 22:00:06 10° 284° (WNW) 1,685 6.7 -6.0°
Maximum altitude 22:03:58 62° 6° (N) 549 3.2 -6.9°
Drops below altitude 10° 22:07:44 10° 87° (E) 1,648 5.2 -7.7°
Enters shadow 22:08:02 - 88° (E) 1,764 5.3 -7.8°
